カタログに戻る

FENGYUN 1C DEB

運用中LEO
NORAD 31844·DEBRIS·🇨🇳 China

打ち上げ May 10, 1999 から Taiyuan Satellite Launch Center

Loading…

次のパス (今後24時間)

TLE

最新Source: Space-Track

元期: Sep 14, 2026, 07:45 UTC

1 31844U 99025CJJ 26257.32338261  .00000779  00000-0  36956-3 0  9990
2 31844 100.2992 296.0414 0101105 316.8563  42.4717 14.20597446992446

AllMySatでFENGYUN 1C DEBをリアルタイム追跡

Download on the App Store